Erie, PA

4:06 AM EST on February 21, 2017 (GMT -0500)
Erie International

Weather History for KERI - November, 2011

Change the Weather History Date:

Thursday, November 10, 2011

  Actual Average Record
Temperature  
Mean Temperature 41 °F 45 °F  
Max Temperature 48 °F 52 °F 68 °F (1939)
Min Temperature 34 °F 38 °F 22 °F (1991)
Degree Days  
Heating Degree Days 24 20  
Month to date heating degree days 144 182  
Since 1 July heating degree days 588 685  
Cooling Degree Days 0 0  
Month to date cooling degree days 0 0  
Year to date cooling degree days 830 638  
Moisture  
Dew Point 32 °F    
Average Humidity 62    
Maximum Humidity 73    
Minimum Humidity 50    
Precipitation  
Precipitation 0.08 in 0.13 in 0.92 in (2008)
Month to date precipitation 0.27 1.29  
Year to date precipitation 48.09 35.78  
Snow  
Snow T in 0.20 in - ()
Month to date snowfall T 1.6  
Since 1 July snowfall T 1.8  
Since 1 September snowfall T 1.8  
Snow Depth 0.00 in    
Sea Level Pressure  
Sea Level Pressure 29.89 in    
Wind  
Wind Speed 11 mph (SW)    
Max Wind Speed 26 mph    
Max Gust Speed 40 mph    
Visibility 9 miles    
Events Rain , Snow    
T = Trace of Precipitation, MM = Missing Value Source: NWS Daily Summary

Daily Weather History Graph

Daily Weather History Graph

Search for Another Location

Airport or City:

Trip Planner

Search our weather history database for the weather conditions in past years. The results will help you decide how hot, cold, wet, or windy it might be!

Date:

Astronomy

Nov. 10, 2011 Rise Set
Actual Time 7:04 AM EST 5:04 PM EST
Civil Twilight 6:34 AM EST 5:34 PM EST
Nautical Twilight 6:01 AM EST 6:07 PM EST
Astronomical Twilight 5:28 AM EST 6:40 PM EST
Moon 4:50 PM EST (11/10) 6:56 AM EST (11/10)
Length of Visible Light 10h 59m
Length of Day
10h 00m
Full, 100% of the Moon is Illuminated
Nov 10
Full
Nov 10
Full
Nov 18
Last Quarter
Nov 25
New
Dec 2
First Quarter

Hourly Weather History & Observations

Time (EST) Temp. Windchill Dew Point Humidity Pressure Visibility Wind Dir Wind Speed Gust Speed Precip Events Conditions
12:12 AM 46.4 °F 38.7 °F 33.8 °F 62% 29.87 in 10.0 mi West 20.7 mph 35.7 mph N/A   Overcast
12:51 AM 45.0 °F 37.6 °F 32.0 °F 60% 29.90 in 10.0 mi WSW 17.3 mph 27.6 mph N/A   Partly Cloudy
1:51 AM 45.0 °F 39.3 °F 32.0 °F 60% 29.91 in 10.0 mi SW 11.5 mph 25.3 mph N/A   Overcast
2:51 AM 44.1 °F 36.8 °F 30.9 °F 60% 29.92 in 10.0 mi SW 16.1 mph 23.0 mph N/A   Overcast
3:51 AM 43.0 °F 36.4 °F 32.0 °F 65% 29.92 in 10.0 mi SW 12.7 mph 19.6 mph N/A   Overcast
4:51 AM 41.0 °F 34.3 °F 33.1 °F 73% 29.93 in 10.0 mi SSW 11.5 mph - 0.00 in   Mostly Cloudy
5:02 AM 42.8 °F 36.6 °F 33.8 °F 70% 29.92 in 10.0 mi SW 11.5 mph - N/A   Overcast
5:40 AM 41.0 °F 32.5 °F 33.8 °F 76% 29.92 in 10.0 mi SSW 17.3 mph 21.9 mph N/A   Mostly Cloudy
5:51 AM 41.0 °F 33.9 °F 33.8 °F 76% 29.92 in 10.0 mi SW 12.7 mph 23.0 mph N/A   Mostly Cloudy
6:15 AM 41.0 °F 33.9 °F 33.8 °F 76% 29.93 in 10.0 mi SW 12.7 mph - N/A   Overcast
6:51 AM 41.0 °F 33.5 °F 33.8 °F 76% 29.94 in 10.0 mi SSW 13.8 mph - N/A Rain Light Rain
7:51 AM 39.9 °F 32.1 °F 34.0 °F 79% 29.96 in 9.0 mi SSW 13.8 mph - 0.00 in Rain Light Rain
8:14 AM 39.2 °F 32.5 °F 33.8 °F 81% 29.95 in 10.0 mi SSW 10.4 mph 20.7 mph 0.00 in   Mostly Cloudy
8:22 AM 41.0 °F 34.3 °F 33.8 °F 76% 29.95 in 10.0 mi SSW 11.5 mph - 0.00 in   Mostly Cloudy
8:51 AM 41.0 °F 34.3 °F 34.0 °F 76% 29.96 in 10.0 mi SSW 11.5 mph - 0.01 in Rain Light Rain
9:37 AM 42.8 °F 37.0 °F 35.6 °F 76% 29.95 in 10.0 mi SSW 10.4 mph - 0.00 in   Overcast
9:51 AM 43.0 °F 36.4 °F 35.1 °F 74% 29.95 in 10.0 mi SW 12.7 mph - 0.00 in   Overcast
10:51 AM 45.0 °F 38.9 °F 34.0 °F 65% 29.94 in 10.0 mi SSW 12.7 mph - N/A   Overcast
11:51 AM 46.9 °F - 32.0 °F 56% 29.92 in 10.0 mi SW 10.4 mph 23.0 mph N/A   Mostly Cloudy
12:51 PM 48.0 °F - 30.0 °F 50% 29.90 in 10.0 mi WSW 8.1 mph 20.7 mph N/A   Mostly Cloudy
1:51 PM 46.9 °F - 30.0 °F 52% 29.89 in 10.0 mi SW 9.2 mph 19.6 mph N/A   Mostly Cloudy
2:51 PM 45.0 °F 39.7 °F 32.0 °F 60% 29.88 in 10.0 mi SW 10.4 mph - 0.00 in Rain Light Rain
3:51 PM 43.0 °F 37.7 °F 34.0 °F 71% 29.88 in 8.0 mi SW 9.2 mph 21.9 mph 0.01 in Rain Rain
3:58 PM 41.0 °F 33.5 °F 35.6 °F 81% 29.86 in 8.0 mi South 13.8 mph - 0.01 in Rain Light Rain
4:51 PM 42.8 °F 38.6 °F 35.6 °F 76% 29.86 in 10.0 mi SSW 6.9 mph - N/A   Overcast
5:51 PM 44.1 °F 37.1 °F 30.9 °F 60% 29.87 in 10.0 mi West 15.0 mph 21.9 mph 0.00 in   Overcast
6:51 PM 43.0 °F 36.8 °F 26.1 °F 51% 29.87 in 10.0 mi WSW 11.5 mph 21.9 mph N/A   Overcast
7:51 PM 41.0 °F 34.3 °F 27.0 °F 57% 29.86 in 10.0 mi SW 11.5 mph - N/A   Mostly Cloudy
8:51 PM 39.9 °F 33.9 °F 25.0 °F 55% 29.84 in 10.0 mi SW 9.2 mph - N/A   Mostly Cloudy
9:51 PM 37.9 °F 30.9 °F 32.0 °F 79% 29.85 in 8.0 mi West 10.4 mph 19.6 mph 0.00 in Rain Light Rain
10:22 PM 37.4 °F 32.1 °F 33.8 °F 87% 29.84 in 10.0 mi Variable 6.9 mph 20.7 mph 0.01 in Rain Light Rain
10:51 PM 35.1 °F - 30.9 °F 85% 29.85 in 8.0 mi Calm Calm - 0.01 in Snow Light Snow
11:14 PM 35.6 °F 26.2 °F 32.0 °F 87% 29.82 in 8.0 mi SSW 15.0 mph 20.7 mph 0.00 in   Overcast
11:30 PM 35.6 °F 25.2 °F 33.8 °F 93% 29.83 in 6.0 mi West 18.4 mph 26.5 mph 0.00 in Snow Light Snow
11:37 PM 33.8 °F 25.3 °F 32.0 °F 93% 29.83 in 1.8 mi WNW 11.5 mph 26.5 mph 0.02 in Snow Light Snow
11:41 PM 33.8 °F 28.6 °F 32.0 °F 93% 29.82 in 2.0 mi WNW 5.8 mph 18.4 mph 0.02 in Snow Light Snow
11:44 PM 33.8 °F 29.6 °F 32.0 °F 93% 29.82 in 3.0 mi West 4.6 mph 16.1 mph 0.03 in Snow Light Snow
11:51 PM 34.0 °F 28.8 °F 32.0 °F 92% 29.83 in 9.0 mi South 5.8 mph - 0.03 in Snow Light Snow